DateTimeUTC,F1_A11,F1_S11,BsB_S11,BsG_S11,BsR_S11,BbsB_S11,BbsG_S11,BbsR_S11,BaB_A11,BaG_A11,BaR_A11,Tu_S11,T_S11,Uu_S11,U_S11,P_S11,T1_A11
2021-07-10T17:00:00Z,00000200,20000000,,,,,,,-000.19,-000.38,-000.23,19.0,25.4,09.6,06.5,0676.2,31.0
2021-07-10T17:01:00Z,00000200,20000000,,,,,,,0000.01,0000.06,0000.52,18.9,25.5,09.7,06.5,0676.2,31.0
2021-07-10T17:02:00Z,00000200,20000000,,,,,,,-000.13,0000.31,-000.08,18.9,25.5,09.7,06.5,0676.2,31.0
2021-07-10T17:03:00Z,00000200,60000000,,,,,,,0000.53,-000.08,0000.04,18.9,25.5,09.7,06.5,0676.2,31.0
2021-07-10T17:04:00Z,00000200,40000000,0000.97,0000.71,0000.45,0000.14,0000.45,0000.13,0000.37,0000.32,0000.47,19.0,25.3,09.7,06.6,0677.1,31.0
2021-07-10T17:05:00Z,00000200,00000000,0001.32,0000.96,0000.38,0000.35,0000.02,0000.18,0000.01,0000.10,-000.08,19.1,25.3,09.8,06.7,0677.2,31.0
2021-07-10T17:06:00Z,00000200,00000000,0001.17,0001.06,0000.41,0000.02,0000.18,0000.25,-000.01,0000.16,0000.27,19.1,25.3,09.6,06.6,0677.2,31.0
2021-07-10T17:07:00Z,00000200,00000000,0000.48,0000.78,0000.41,0000.16,0000.56,0000.03,0000.38,0000.50,0000.16,19.1,25.3,09.7,06.7,0677.2,31.0
2021-07-10T17:08:00Z,00000200,00000000,0000.65,0000.79,0000.51,-000.10,0000.11,0000.13,0000.35,-000.06,0000.14,19.1,25.3,09.9,06.8,0677.2,31.0
2021-07-10T17:09:00Z,00000200,00000000,0001.38,0000.47,0000.70,-000.20,0000.04,0000.26,0000.05,0000.18,-000.08,19.1,25.2,10.0,06.9,0677.2,31.0
2021-07-10T17:10:00Z,00000200,00000000,0000.78,0000.88,0000.56,-000.06,0000.23,-000.03,0000.17,0000.30,0000.52,19.1,25.2,10.0,06.9,0677.2,31.0
2021-07-10T17:11:00Z,00000200,00000000,0000.45,0001.02,0000.32,-000.63,-000.18,0000.03,0000.30,0000.08,0000.15,19.1,25.2,10.0,06.9,0677.2,31.0
2021-07-10T17:12:00Z,00000200,00000000,0001.03,0000.82,0000.44,-000.21,0000.02,0000.16,0000.29,0000.05,-000.31,19.1,25.3,10.0,06.9,0677.2,31.1
2021-07-10T17:13:00Z,00000200,00000000,0001.27,0000.46,0000.26,0000.09,0000.09,0000.04,0000.11,0000.26,0000.31,19.1,25.2,10.1,07.0,0677.2,31.1
2021-07-10T17:14:00Z,00000200,00000000,0000.81,0000.70,0000.53,0000.69,0000.21,0000.07,0000.15,0000.19,0000.34,19.1,25.3,10.0,06.9,0677.2,31.1
2021-07-10T17:15:00Z,00000200,00000000,0000.91,0000.84,0000.48,0000.05,0000.18,-000.12,-000.05,0000.27,-000.04,19.1,25.3,10.1,07.0,0677.2,31.1
2021-07-10T17:16:00Z,00000200,00000000,0001.07,0000.50,0000.18,-000.15,0000.50,0000.07,0000.34,0000.29,0000.03,19.1,25.3,10.0,06.9,0677.2,31.0
2021-07-10T17:17:00Z,00000200,00000000,0000.02,0000.55,0000.66,-000.26,0000.02,0000.38,0000.33,0000.29,0000.30,19.1,25.3,09.8,06.8,0677.2,31.0
2021-07-10T17:18:00Z,00000200,00000000,0000.09,0000.84,0000.28,0000.02,0000.02,0000.24,0000.14,0000.20,0000.05,19.2,25.3,09.9,06.9,0677.2,31.1
2021-07-10T17:19:00Z,00000200,00000000,0001.18,0000.68,0000.22,0000.44,0000.12,-000.05,0000.04,-000.33,-000.06,19.2,25.3,09.8,06.8,0677.2,31.1
2021-07-10T17:20:00Z,00000200,00000000,0000.98,0000.55,0000.26,-000.39,0000.40,0000.01,0000.10,0000.25,0000.00,19.2,25.3,09.8,06.7,0677.3,31.1
2021-07-10T17:21:00Z,00000200,00000000,0001.06,0001.03,0000.24,-000.60,0000.06,0000.17,0000.16,0000.54,0000.18,19.2,25.2,09.8,06.7,0677.3,31.1
2021-07-10T17:22:00Z,00000200,00000000,0000.62,0000.76,0000.07,-000.55,0000.17,0000.08,0000.24,-000.12,0000.46,19.2,25.3,09.7,06.7,0677.3,31.1
2021-07-10T17:23:00Z,00000200,00000000,0001.20,0000.82,0000.42,-000.13,0000.31,0000.36,0000.02,0000.17,-000.15,19.2,25.2,09.7,06.7,0677.3,31.0
2021-07-10T17:24:00Z,00000200,00000000,0000.75,0000.92,0000.37,0000.08,0000.08,-000.23,0000.21,0000.04,0000.20,19.2,25.2,09.7,06.7,0677.3,31.0
2021-07-10T17:25:00Z,00000200,00000000,0001.61,0000.64,0000.13,-000.13,0000.10,-000.06,-000.18,-000.04,-000.22,19.2,25.3,09.7,06.7,0677.3,31.0
2021-07-10T17:26:00Z,00000200,00000000,0000.92,0000.50,0000.26,-000.30,0000.12,-000.19,0000.28,0000.33,0000.20,19.2,25.3,09.5,06.6,0677.3,31.0
2021-07-10T17:27:00Z,00000200,00000000,0001.24,0000.40,0000.50,-000.21,0000.02,0000.11,0000.51,0000.13,0000.45,19.2,25.3,09.6,06.6,0677.3,31.0
2021-07-10T17:28:00Z,00000200,00000000,0000.44,0000.93,0000.04,0000.20,0000.24,0000.11,-000.14,0000.23,0000.23,19.2,25.3,09.7,06.7,0677.3,31.1
2021-07-10T17:29:00Z,00000200,00000000,0001.28,0000.55,0000.13,-000.29,0000.28,-000.24,0000.27,-000.03,-000.32,19.2,25.3,09.6,06.7,0677.3,31.1
2021-07-10T17:30:00Z,00000200,00000000,0001.25,0000.68,0000.28,-000.33,0000.25,0000.22,-000.00,0000.40,0000.24,19.2,25.3,09.7,06.7,0677.3,31.1
2021-07-10T17:31:00Z,00000200,00000000,0001.61,0000.22,0000.14,0000.10,0000.12,0000.36,0000.19,0000.15,-000.05,19.2,25.3,09.6,06.6,0677.3,31.0
2021-07-10T17:32:00Z,00000200,00000000,0000.42,0000.54,0000.33,-000.05,-000.00,-000.00,0000.59,-000.09,0000.11,19.2,25.3,09.6,06.6,0677.3,31.0
2021-07-10T17:33:00Z,00000200,00000000,0000.35,0000.63,0000.08,0000.06,-000.06,0000.19,-000.15,0000.35,0000.13,19.2,25.2,09.6,06.6,0677.2,31.0
2021-07-10T17:34:00Z,00000200,00000000,0000.40,0000.77,0000.40,-000.08,0000.18,0000.03,0000.20,0000.08,0000.20,19.2,25.2,09.4,06.5,0677.2,31.0
2021-07-10T17:35:00Z,00000200,00000000,0000.64,0000.52,0000.38,-000.31,0000.10,-000.20,0000.25,-000.04,0000.35,19.2,25.3,09.4,06.5,0677.3,31.1
2021-07-10T17:36:00Z,00000200,00000000,0001.06,0000.22,0000.15,0000.05,0000.07,-000.17,-000.09,0000.05,-000.10,19.2,25.3,09.6,06.6,0677.3,31.1
2021-07-10T17:37:00Z,00000200,00000000,0000.55,0000.29,0000.18,0000.23,0000.21,0000.10,-000.06,0000.13,0000.06,19.2,25.3,09.3,06.5,0677.2,31.0
2021-07-10T17:38:00Z,00000200,00000000,0000.37,0000.42,0000.46,0000.08,0000.11,-000.20,0000.23,0000.33,0000.23,19.2,25.3,09.2,06.4,0677.2,31.0
2021-07-10T17:39:00Z,00000200,00000000,0000.67,0000.86,0000.08,0000.15,0000.12,-000.10,0000.46,-000.05,-000.34,19.2,25.3,09.4,06.5,0677.3,31.0
2021-07-10T17:40:00Z,00000200,00000000,0000.98,0000.52,0000.09,-000.51,0000.04,0000.23,0000.08,0000.20,0000.27,19.2,25.3,09.4,06.5,0677.3,31.0
2021-07-10T17:41:00Z,00000200,00000000,0001.11,0000.58,0000.21,-000.15,-000.06,0000.08,-000.32,0000.12,0000.10,19.2,25.3,09.5,06.5,0677.3,31.1
2021-07-10T17:42:00Z,00000200,00000000,0000.31,0000.46,0000.03,0000.20,0000.40,0000.17,0000.21,-000.09,-000.18,19.2,25.3,09.5,06.5,0677.3,31.1
2021-07-10T17:43:00Z,00000200,00000000,0000.71,0000.45,0000.37,-000.21,-000.50,0000.09,0000.36,0000.21,0000.47,19.2,25.3,09.5,06.5,0677.3,31.1
2021-07-10T17:44:00Z,00000200,00000000,0001.04,0000.38,0000.04,0000.08,-000.19,0000.11,-000.33,0000.06,0000.03,19.2,25.3,09.4,06.5,0677.3,31.1
2021-07-10T17:45:00Z,00000200,00000000,0000.40,0000.51,-000.03,-000.10,0000.23,-000.11,0000.29,-000.02,-000.15,19.2,25.3,09.3,06.4,0677.3,31.1
2021-07-10T17:46:00Z,00000200,00000000,0000.77,0000.40,0000.63,0000.42,0000.12,0000.14,-000.19,0000.05,0000.22,19.2,25.3,09.3,06.4,0677.3,31.1
2021-07-10T17:47:00Z,00000200,00000000,0000.85,0000.61,0000.23,-000.29,-000.15,0000.25,0000.18,-000.08,0000.05,19.2,25.3,09.3,06.4,0677.4,31.1
2021-07-10T17:48:00Z,00000200,00000000,0000.18,0000.22,0000.34,0000.21,0000.04,-000.19,0000.31,0000.27,-000.07,19.2,25.3,09.5,06.5,0677.4,31.1
2021-07-10T17:49:00Z,00000200,00000000,0001.44,0000.12,0000.33,0000.29,0000.10,-000.21,0000.37,0000.44,0000.19,19.2,25.3,09.4,06.5,0677.4,31.1
2021-07-10T17:50:00Z,00000200,00000000,0000.34,0000.21,0000.30,0000.10,-000.14,0000.08,-000.14,-000.01,0000.13,19.2,25.3,09.3,06.5,0677.3,31.1
2021-07-10T17:51:00Z,00000200,00000000,0000.13,0000.55,0000.24,-000.16,0000.10,0000.13,0000.19,0000.05,0000.10,19.2,25.3,09.3,06.5,0677.4,31.1
2021-07-10T17:52:00Z,00000200,00000000,0000.03,0000.87,-000.02,0000.02,0000.15,0000.07,0000.10,-000.09,0000.18,19.3,25.3,09.4,06.5,0677.4,31.1
2021-07-10T17:53:00Z,00000200,00000000,0000.51,0000.58,0000.08,-000.09,0000.13,-000.03,0000.01,0000.14,-000.08,19.3,25.3,09.3,06.4,0677.4,31.0
2021-07-10T17:54:00Z,00000200,00000000,0000.87,0000.32,0000.56,0000.12,0000.38,0000.04,-000.02,0000.15,0000.29,19.3,25.3,09.2,06.4,0677.4,31.1
2021-07-10T17:55:00Z,00000200,00000000,0001.09,0000.50,-000.25,-000.15,0000.19,0000.08,0000.15,0000.23,0000.04,19.3,25.3,09.3,06.4,0677.4,31.1
2021-07-10T17:56:00Z,00000200,00000000,0000.33,0000.53,-000.09,-000.72,0000.02,-000.10,0000.41,-000.13,-000.01,19.3,25.3,09.3,06.5,0677.4,31.1
2021-07-10T17:57:00Z,00000200,40000000,,,,,,,-000.16,0000.15,0000.16,19.3,25.3,09.1,06.3,0677.2,31.1
2021-07-10T17:58:00Z,00000200,60000000,,,,,,,0000.30,-000.08,0000.08,19.1,25.4,09.3,06.3,0676.4,31.1
2021-07-10T17:59:00Z,00000200,20000000,,,,,,,-000.11,0000.04,-000.20,19.1,25.6,09.3,06.2,0676.4,31.1
